• Em Portugal
  • Lista de países
  • Para 7 dias
  • Temperatura da água
  • Mapas de satélite
  • Mapa do tempo
  • Widgets de tempo
  • user-avatar
    Iniciar Sessão

    Previsão horária em Salvador

    Hoje, 20 Janeiro, Sábado

    Tempo Temperatura Precipitação Vento Pressão Humidade
    00:00 +25°C° 0 mm 3 m/s 756 mmHg 90%
    01:00 +25°C° 0 mm 3 m/s 756 mmHg 91%
    02:00 +24°C° 0 mm 3 m/s 756 mmHg 92%
    03:00 +24°C° 0 mm 2 m/s 756 mmHg 93%
    04:00 +24°C° 0,1 mm 2 m/s 756 mmHg 93%
    05:00 +24°C° 0,1 mm 2 m/s 756 mmHg 92%
    06:00 +25°C° 0,1 mm 2 m/s 756 mmHg 92%
    07:00 +27°C° 0,1 mm 2 m/s 757 mmHg 81%
    08:00 +29°C° 0,1 mm 3 m/s 757 mmHg 70%
    09:00 +31°C° 0 mm 3 m/s 757 mmHg 59%
    10:00 +33°C° 0,1 mm 3 m/s 757 mmHg 57%
    11:00 +33°C° 0,1 mm 3 m/s 757 mmHg 56%
    12:00 +33°C° 0,1 mm 3 m/s 757 mmHg 54%
    13:00 +34°C° 0 mm 4 m/s 756 mmHg 53%
    14:00 +34°C° 0 mm 4 m/s 756 mmHg 51%
    15:00 +34°C° 0 mm 4 m/s 755 mmHg 50%
    16:00 +33°C° 0 mm 4 m/s 755 mmHg 57%
    17:00 +30°C° 0 mm 4 m/s 755 mmHg 64%
    18:00 +28°C° 0 mm 4 m/s 755 mmHg 71%
    19:00 +27°C° 0 mm 4 m/s 755 mmHg 76%
    20:00 +26°C° 0 mm 3 m/s 756 mmHg 81%
    21:00 +25°C° 0 mm 3 m/s 756 mmHg 86%
    22:00 +25°C° 0 mm 3 m/s 756 mmHg 88%
    23:00 +25°C° 0 mm 3 m/s 756 mmHg 90%

    Amanhã, 21 Janeiro, Domingo

    Tempo Temperatura Precipitação Vento Pressão Humidade
    00:00 +25°C° 0 mm 3 m/s 756 mmHg 92%
    01:00 +24°C° 0 mm 2 m/s 756 mmHg 93%
    02:00 +24°C° 0 mm 2 m/s 756 mmHg 93%
    03:00 +24°C° 0 mm 2 m/s 756 mmHg 94%
    04:00 +24°C° 0,1 mm 2 m/s 756 mmHg 93%
    05:00 +24°C° 0,1 mm 2 m/s 756 mmHg 93%
    06:00 +24°C° 0,1 mm 2 m/s 756 mmHg 93%
    07:00 +27°C° 0,1 mm 2 m/s 756 mmHg 81%
    08:00 +29°C° 0,1 mm 2 m/s 757 mmHg 70%
    09:00 +31°C° 0,1 mm 3 m/s 757 mmHg 59%
    10:00 +33°C° 0 mm 3 m/s 756 mmHg 54%
    11:00 +34°C° 0 mm 3 m/s 756 mmHg 50%
    12:00 +35°C° 0 mm 4 m/s 756 mmHg 46%
    13:00 +35°C° 0 mm 4 m/s 755 mmHg 47%
    14:00 +35°C° 0 mm 4 m/s 755 mmHg 49%
    15:00 +34°C° 0 mm 5 m/s 754 mmHg 50%
    16:00 +33°C° 0 mm 4 m/s 754 mmHg 57%
    17:00 +30°C° 0 mm 4 m/s 754 mmHg 64%
    18:00 +28°C° 0 mm 4 m/s 754 mmHg 72%
    19:00 +27°C° 0 mm 4 m/s 755 mmHg 76%
    20:00 +26°C° 0 mm 4 m/s 755 mmHg 81%
    21:00 +25°C° 0 mm 4 m/s 755 mmHg 86%
    22:00 +25°C° 0 mm 4 m/s 755 mmHg 88%
    23:00 +25°C° 0 mm 3 m/s 755 mmHg 90%

    Depois de amanhã, 22 Janeiro, Segunda-feira

    Tempo Temperatura Precipitação Vento Pressão Humidade
    00:00 +25°C° 0 mm 3 m/s 755 mmHg 92%
    01:00 +24°C° 0 mm 3 m/s 755 mmHg 93%
    02:00 +24°C° 0 mm 3 m/s 754 mmHg 94%
    03:00 +24°C° 0 mm 2 m/s 754 mmHg 94%
    04:00 +24°C° 0 mm 2 m/s 754 mmHg 94%
    05:00 +24°C° 0 mm 2 m/s 755 mmHg 94%
    06:00 +24°C° 0 mm 2 m/s 755 mmHg 94%
    07:00 +27°C° 0 mm 2 m/s 755 mmHg 82%
    08:00 +29°C° 0 mm 2 m/s 756 mmHg 71%
    09:00 +31°C° 0 mm 2 m/s 756 mmHg 59%
    10:00 +33°C° 0 mm 3 m/s 756 mmHg 56%
    11:00 +34°C° 0 mm 3 m/s 755 mmHg 53%
    12:00 +35°C° 0 mm 4 m/s 755 mmHg 49%
    13:00 +34°C° 0,2 mm 4 m/s 754 mmHg 53%
    14:00 +34°C° 0,2 mm 4 m/s 754 mmHg 58%
    15:00 +33°C° 0,2 mm 5 m/s 753 mmHg 62%
    16:00 +32°C° 0 mm 5 m/s 753 mmHg 66%
    17:00 +29°C° 0 mm 5 m/s 754 mmHg 70%
    18:00 +28°C° 0 mm 5 m/s 754 mmHg 74%
    19:00 +27°C° 0 mm 5 m/s 754 mmHg 78%
    20:00 +27°C° 0 mm 4 m/s 755 mmHg 82%
    21:00 +26°C° 0 mm 4 m/s 755 mmHg 85%
    22:00 +26°C° 0 mm 4 m/s 755 mmHg 87%
    23:00 +25°C° 0 mm 4 m/s 755 mmHg 89%

    23 Janeiro, Terça-feira

    Tempo Temperatura Precipitação Vento Pressão Humidade
    00:00 +25°C° 0 mm 4 m/s 755 mmHg 92%
    01:00 +25°C° 0,1 mm 4 m/s 754 mmHg 92%
    02:00 +25°C° 0,1 mm 3 m/s 754 mmHg 93%
    03:00 +24°C° 0,1 mm 3 m/s 754 mmHg 94%
    04:00 +25°C° 0,1 mm 3 m/s 754 mmHg 93%
    05:00 +25°C° 0,1 mm 3 m/s 755 mmHg 93%
    06:00 +25°C° 0,1 mm 3 m/s 755 mmHg 93%
    07:00 +27°C° 0,2 mm 3 m/s 755 mmHg 83%
    08:00 +29°C° 0,2 mm 4 m/s 756 mmHg 74%
    09:00 +32°C° 0,2 mm 4 m/s 756 mmHg 65%
    10:00 +32°C° 0,3 mm 4 m/s 756 mmHg 63%
    11:00 +33°C° 0,3 mm 5 m/s 755 mmHg 61%
    12:00 +33°C° 0,3 mm 5 m/s 755 mmHg 59%
    13:00 +33°C° 0,1 mm 5 m/s 754 mmHg 58%
    14:00 +33°C° 0,1 mm 5 m/s 754 mmHg 57%
    15:00 +34°C° 0,1 mm 5 m/s 753 mmHg 56%
    16:00 +32°C° 0,1 mm 5 m/s 753 mmHg 62%
    17:00 +30°C° 0,1 mm 5 m/s 754 mmHg 68%
    18:00 +28°C° 0,1 mm 4 m/s 754 mmHg 74%
    19:00 +27°C° 0 mm 4 m/s 754 mmHg 79%
    20:00 +27°C° 0 mm 4 m/s 755 mmHg 84%
    21:00 +26°C° 0 mm 4 m/s 755 mmHg 89%
    22:00 +25°C° 0 mm 3 m/s 755 mmHg 90%
    23:00 +25°C° 0 mm 3 m/s 755 mmHg 92%

    24 Janeiro, Quarta-feira

    Tempo Temperatura Precipitação Vento Pressão Humidade
    00:00 +25°C° 0 mm 3 m/s 755 mmHg 94%
    01:00 +25°C° 0,1 mm 2 m/s 754 mmHg 94%
    02:00 +24°C° 0,1 mm 2 m/s 754 mmHg 95%
    03:00 +24°C° 0,1 mm 2 m/s 754 mmHg 95%
    04:00 +24°C° 0,2 mm 2 m/s 754 mmHg 95%
    05:00 +24°C° 0,2 mm 2 m/s 755 mmHg 95%
    06:00 +24°C° 0,2 mm 2 m/s 755 mmHg 94%
    07:00 +26°C° 0,4 mm 2 m/s 755 mmHg 86%
    08:00 +28°C° 0,4 mm 2 m/s 755 mmHg 78%
    09:00 +30°C° 0,4 mm 2 m/s 756 mmHg 70%
    10:00 +30°C° 0,4 mm 2 m/s 755 mmHg 68%
    11:00 +31°C° 0,4 mm 2 m/s 755 mmHg 65%
    12:00 +31°C° 0,4 mm 3 m/s 755 mmHg 63%
    13:00 +33°C° 0,2 mm 3 m/s 754 mmHg 60%
    14:00 +33°C° 0,2 mm 4 m/s 754 mmHg 58%
    15:00 +33°C° 0,2 mm 4 m/s 753 mmHg 55%
    16:00 +32°C° 0 mm 4 m/s 753 mmHg 62%
    17:00 +30°C° 0 mm 4 m/s 753 mmHg 68%
    18:00 +28°C° 0 mm 5 m/s 754 mmHg 74%
    19:00 +27°C° 0 mm 4 m/s 754 mmHg 79%
    20:00 +27°C° 0 mm 4 m/s 754 mmHg 84%
    21:00 +26°C° 0 mm 4 m/s 755 mmHg 89%
    22:00 +25°C° 0,1 mm 4 m/s 755 mmHg 90%
    23:00 +25°C° 0,1 mm 3 m/s 754 mmHg 92%

    25 Janeiro, Quinta-feira

    Tempo Temperatura Precipitação Vento Pressão Humidade
    00:00 +25°C° 0,1 mm 3 m/s 754 mmHg 93%
    01:00 +25°C° 0 mm 3 m/s 754 mmHg 93%
    02:00 +24°C° 0 mm 2 m/s 754 mmHg 94%
    03:00 +24°C° 0 mm 2 m/s 753 mmHg 94%
    04:00 +24°C° 0 mm 2 m/s 754 mmHg 94%
    05:00 +24°C° 0 mm 2 m/s 754 mmHg 94%
    06:00 +25°C° 0 mm 2 m/s 754 mmHg 94%
    07:00 +27°C° 0 mm 2 m/s 755 mmHg 84%
    08:00 +29°C° 0 mm 2 m/s 755 mmHg 73%
    09:00 +31°C° 0 mm 2 m/s 755 mmHg 63%
    10:00 +31°C° 0 mm 2 m/s 755 mmHg 58%
    11:00 +32°C° 0 mm 2 m/s 754 mmHg 54%
    12:00 +34°C° 0 mm 3 m/s 754 mmHg 50%
    13:00 +34°C° 0 mm 3 m/s 753 mmHg 50%
    14:00 +34°C° 0 mm 3 m/s 753 mmHg 50%
    15:00 +34°C° 0 mm 4 m/s 752 mmHg 50%
    16:00 +33°C° 0 mm 4 m/s 752 mmHg 56%
    17:00 +30°C° 0 mm 4 m/s 752 mmHg 63%
    18:00 +29°C° 0 mm 4 m/s 752 mmHg 69%
    19:00 +28°C° 0 mm 4 m/s 753 mmHg 74%
    20:00 +27°C° 0 mm 4 m/s 753 mmHg 78%
    21:00 +26°C° 0 mm 4 m/s 754 mmHg 82%
    22:00 +25°C° 0 mm 4 m/s 754 mmHg 85%
    23:00 +25°C° 0 mm 4 m/s 754 mmHg 88%
    Mostrar mais